Regional Weather Roundup
Issued by NWS

Home | Current Version | Previous Version | Text Only | Print | Product List | Glossary Off
Versions: 1 2 3 4 5 6 7 8 9 10 11 12 13 14 15 16 17 18 19 20 21 22 23 24 25 26 27 28 29 30 31 32 33 34 35 36 37 38 39 40 41 42 43 44 45 46 47 48 49 50

000
ASUS45 KABQ 311601
RWRNM
NEW MEXICO REGIONAL WEATHER ROUNDUP
NATIONAL WEATHER SERVICE ALBUQUERQUE NM
1000 AM MDT MON AUG 31 2015

NOTE: "FAIR" MEANS FEW OR NO CLOUDS BELOW 12,000 FEET AGL WITH NO
       SIGNIFICANT WEATHER OR OBSTRUCTIONS TO VISION.

      THIS PRODUCT IS RELEASED AS TWO VERSIONS.  ONE VERSION NEAR
      THE TOP OF THE HOUR CONTAINING PRELIMINARY DATA FROM ALBUQUERQUE
      AND OTHER STATIONS.  A FINAL VERSION WITH ADDITIONAL DATA IS
      ISSUED ABOUT 10 MINUTES AFTER THE HOUR.

NMZ501-503-504-510>518-311700-
NORTHWEST PLATEAU/NORTHCENTRAL MOUNTAINS

CITY           SKY/WX    TMP DP  RH WIND       PRES   REMARKS
FARMINGTON     PTSUNNY   73  52  47 CALM      30.21R
SANTA FE       SUNNY     76  45  33 N8        30.25S
TAOS           MOSUNNY   72  43  35 SW6       30.33S
ANGEL FIRE     FAIR      64  47  54 S5        30.39S

$$
NMZ402-403-502-505>509-311700-
WESTCENTRAL MOUNTAINS/SOUTHWEST MOUNTAINS

CITY           SKY/WX    TMP DP  RH WIND       PRES   REMARKS
GALLUP         SUNNY     71  52  50 E5        30.30R
GRANTS         MOSUNNY   69  51  52 CALM      30.31S
SILVER CITY      N/A     79  54  41 NW8       30.22S

$$
NMZ407-409-411-412-311700-
SOUTHERN DESERTS

CITY           SKY/WX    TMP DP  RH WIND       PRES   REMARKS
DEMING         SUNNY     80  56  43 SW5       30.13R
HOLLOMAN AFB   SUNNY     82  47  29 S6        30.10R
ALAMOGORDO     SUNNY     81  46  30 W6        30.13R
T OR C         SUNNY     82  52  35 N6        30.15R

$$
NMZ519>523-311700-
CENTRAL VALLEYS/CENTRAL HIGHLANDS

CITY           SKY/WX    TMP DP  RH WIND       PRES   REMARKS
ALBUQUERQUE    MOSUNNY   78  49  35 N7        30.21S
DOUBLE EAGLE   MOSUNNY   77  50  38 VRB7      30.24S
MORIARTY ARPT  FAIR      76  45  33 NW3       30.26R
CLINES CORNERS SUNNY     74  47  38 NW17G24   30.28R
BELEN          FAIR      78  47  33 NW3       30.20S
SOCORRO        NOT AVBL

$$
NMZ524>526-539-540-311700-
SOUTHCENTRAL MOUNTAINS

CITY           SKY/WX    TMP DP  RH WIND       PRES   REMARKS
RUIDOSO        NOT AVBL

$$
NMZ527>531-311700-
NORTHEAST HIGHLANDS/NORTHEAST PLAINS

CITY           SKY/WX    TMP DP  RH WIND       PRES   REMARKS
LAS VEGAS      SUNNY     77  44  30 E3        30.25R
RATON          SUNNY     77  49  37 E3        30.17S
CLAYTON        SUNNY     84  55  36 S8        30.07R

$$
NMZ532>537-311700-
EASTCENTRAL PLAINS

CITY           SKY/WX    TMP DP  RH WIND       PRES   REMARKS
TUCUMCARI      SUNNY     82  51  34 SW16      30.05S
CANNON AFB     SUNNY     80  51  36 SW13G20   30.11S
CLOVIS AIRPORT SUNNY     81  50  34 S18       30.12S

$$
NMZ028-029-538-311700-
SOUTHEAST PLAINS

CITY           SKY/WX    TMP DP  RH WIND       PRES   REMARKS
ROSWELL        SUNNY     79  55  43 S15       30.08S
ARTESIA        SUNNY     77  57  50 SE14      30.09S
CARLSBAD       NOT AVBL


$$


USA.gov is the U.S. government's official web portal to all federal, state and local government web resources and services.